Regional Weather Roundup
Issued by NWS Portland, ME

Home | Current Version | Previous Version | Text Only | Print | Product List | Glossary On
Versions: 1 2 3 4 5 6 7 8 9 10 11 12 13 14 15 16 17 18 19 20 21 22 23 24 25 26 27 28 29 30 31 32 33 34 35 36 37 38 39 40 41 42 43 44 45 46 47 48 49 50
000
ASUS41 KGYX 052305
RWRGYX
WEATHER ROUNDUP FOR MAINE AND NEW HAMPSHIRE
NATIONAL WEATHER SERVICE GRAY ME
600 PM EST THU MAR 05 2015

MEZ002-005-006-010-012-015-018-020-021-024-026-027-029-060000-
MAINE

CITY           SKY/WX    TMP DP  RH WIND       PRES   REMARKS
PORTLAND       CLOUDY    21  -2  36 N14       30.15R WCI   8
SANFORD        CLOUDY    19   0  42 NW9       30.13R
BAR HARBOR     CLOUDY    16  -6  38 NW10      30.12R WCI   3
WISCASSET      CLOUDY    18  -7  32 MISG      30.15R
ROCKLAND       CLOUDY    18  -8  32 NW9       30.12R
FRYEBURG       CLOUDY    16  -5  39 N9        30.13R
LEWISTONAUBURN CLOUDY    18  -8  32 NW12      30.12R WCI   5
AUGUSTA        CLOUDY    15  -7  37 N9        30.13R
WATERVILLE     CLOUDY    16  -9  32 NW6       30.10R
BANGOR         CLOUDY    14  -5  42 NW15      30.13R WCI  -1
GREENVILLE       N/A      7 -13  39 NW16G23   30.01R WCI -11
MILLINOCKET    CLOUDY    14  -7  38 NW6       30.11R
HOULTON        MOCLDY    11 -14  31 N8        30.07R
PRESQUE ISLE   CLEAR      9 -15  33 NW12      30.10R WCI  -6
FRENCHVILLE    CLEAR      1 -15  47 NW8       30.05R
CARIBOU        CLEAR      4 -15  41 NW10      30.08R WCI -11
$$

NHZ002-005-008-009-011-012-014-060000-
NEW HAMPSHIRE

CITY           SKY/WX    TMP DP  RH WIND       PRES   REMARKS
PORTSMOUTH     MOCLDY    21   1  42 NW14      30.13R WCI   8
ROCHESTER      CLOUDY    18   0  45 NW12      30.14R WCI   5
NASHUA         CLOUDY    21  -1  38 NW8       30.17R
MANCHESTER     CLOUDY    20   1  43 N14       30.16R WCI   7
CONCORD        CLOUDY    18  -4  37 NW13G20   30.17R WCI   5
LACONIA        CLOUDY    16  -6  38 W9        30.11S
PLYMOUTH       FAIR      15   0  50 NW10      30.16R WCI   2
BERLIN         CLOUDY    10 -11  38 N9        30.10R
WHITEFIELD     CLOUDY    10  -9  42 NW6       30.13R
JAFFREY        CLOUDY    17  -1  45 VRB5      30.10R
KEENE          CLOUDY    19   0  42 N13       30.17R WCI   7
LEBANON        CLOUDY    15  -6  39 N9        30.18R
MT WASHINGTON  MOCLDY    -9 -20  59 NW36        N/A  WCI -41
$$

VTZ005-007-008-060000-
VERMONT

CITY           SKY/WX    TMP DP  RH WIND       PRES   REMARKS
ST JOHNSBURY     N/A     12  -5  46 MISG      30.16R
MONTPELIER     CLOUDY     9  -9  44 NW5       30.18R
BURLINGTON     MOCLDY    11  -8  42 N7        30.25R
$$

MAZ007-012-024-CTZ003-RIZ002-NYZ038-NYZ072-060000-
SOUTHERN NEW ENGLAND AND NY

CITY           SKY/WX    TMP DP  RH WIND       PRES   REMARKS
BOSTON         CLOUDY    24   3  40 N13       30.16R WCI  12
WORCESTER      CLOUDY    20   2  45 NW8       30.10R
NANTUCKET      LGT SNOW  24  20  84 N18       30.12R FOG     WCI  10
PROVIDENCE     LGT SNOW  22  18  85 W6        30.16R FOG
HARTFORD       CLOUDY    25   3  38 NW8       30.15S
ALBANY         CLOUDY    19   2  47 W15       30.23R WCI   5
NEW YORK CITY  LGT SNOW  22  18  85 NW14      30.24R VSB 1   WCI   9
$$

ANZ081-ANZ082-ANZ150-NHZ014-MEZ023>029-060000-
COASTAL MARINE OBSERVATIONS

STATION/POSITION TIME  TEMP    WIND        PRES    WAVE
                       AIR SEA DIR/SP/G            HT/PER
                 (UTC) (F)     (DEG/KT/KT) (MB)    (FT/S)
MOUNT DESERT ROC 2300   19                 1018.5R
MATINICUS ROCK   2200   20     340/ 22/ 25 1018.6R
WELLS            2200   22     320/  7/ 15 1019.3R
ISLE OF SHOALS   2200   22     330/ 18/ 20 1018.9R
JEFFREYS LEDGE   2221      39                N/A     5/11
CASHES LEDGE BUO 2250   24 42              1018.9R   6/ 5
$$

.............KEY..............
   WCI - WIND CHILL
   TC  - TEMPERATURE IN CELSIUS
   VSB - VISIBILITY IN MILES
   HX  - HEAT INDEX
   FAIR- INDICATES FEW OR NO CLOUDS BELOW 12,000 FT, WITH NO
         SIGNIFICANT WEATHER AND/OR OBSTRUCTIONS TO VISIBILITY.





USA.gov is the U.S. government's official web portal to all federal, state and local government web resources and services.